When you browse on this site, cookies collect data to enhance your experience and personalize the content and advertising you see.
Visit our Privacy Policy to learn more. By continuing to use the site, you agree to this use of cookies and data.
  • In Hungary
  • List of Countries
  • For 7 days
  • Water Temperature
  • Weather Map
  • News
  • Weather Widgets
  • user-avatar
    Login

    Hourly Weather Vittorio Veneto

    Today, 29 March, Sunday

    Time Temperature Precipitation Wind Pressure Humidity
    00:00 +12°C° 0 mm 1 mps 749 mmHg 72%
    01:00 +12°C° 0 mm 1 mps 749 mmHg 70%
    02:00 +12°C° 0 mm 1 mps 749 mmHg 72%
    03:00 +11°C° 0 mm 1 mps 749 mmHg 74%
    04:00 +11°C° 0 mm 1 mps 749 mmHg 75%
    05:00 +11°C° 0 mm 1 mps 748 mmHg 75%
    06:00 +11°C° 0 mm 1 mps 748 mmHg 74%
    07:00 +12°C° 0 mm 1 mps 748 mmHg 75%
    08:00 +13°C° 0 mm 1 mps 748 mmHg 70%
    09:00 +15°C° 0 mm 1 mps 748 mmHg 65%
    10:00 +16°C° 0 mm 1 mps 748 mmHg 61%
    11:00 +18°C° 0.3 mm 1 mps 748 mmHg 59%
    12:00 +18°C° 0.3 mm 1 mps 747 mmHg 57%
    13:00 +18°C° 0.3 mm 2 mps 747 mmHg 56%
    14:00 +17°C° 0.3 mm 2 mps 746 mmHg 56%
    15:00 +17°C° 0.3 mm 2 mps 746 mmHg 56%
    16:00 +17°C° 0.3 mm 2 mps 746 mmHg 55%
    17:00 +16°C° 0.2 mm 2 mps 746 mmHg 61%
    18:00 +14°C° 0.2 mm 1 mps 746 mmHg 67%
    19:00 +13°C° 0.2 mm 1 mps 746 mmHg 73%
    20:00 +13°C° 0.1 mm 1 mps 747 mmHg 75%
    21:00 +12°C° 0.1 mm 1 mps 747 mmHg 76%
    22:00 +12°C° 0.1 mm 1 mps 747 mmHg 78%
    23:00 +12°C° 0.3 mm 1 mps 748 mmHg 78%

    Tomorrow, 30 March, Monday

    Time Temperature Precipitation Wind Pressure Humidity
    00:00 +12°C° 0.3 mm 1 mps 748 mmHg 79%
    01:00 +12°C° 0.3 mm 1 mps 748 mmHg 80%
    02:00 +11°C° 0.3 mm 1 mps 748 mmHg 81%
    03:00 +11°C° 0.3 mm 1 mps 748 mmHg 83%
    04:00 +11°C° 0.3 mm 1 mps 748 mmHg 84%
    05:00 +11°C° 0.3 mm 1 mps 748 mmHg 85%
    06:00 +9°C° 0.3 mm 2 mps 748 mmHg 85%
    07:00 +9°C° 0.3 mm 2 mps 749 mmHg 86%
    08:00 +9°C° 0.3 mm 2 mps 749 mmHg 84%
    09:00 +9°C° 0.3 mm 3 mps 749 mmHg 83%
    10:00 +9°C° 0.3 mm 3 mps 749 mmHg 81%
    11:00 +9°C° 0.7 mm 3 mps 749 mmHg 82%
    12:00 +9°C° 0.7 mm 3 mps 749 mmHg 83%
    13:00 +9°C° 0.7 mm 2 mps 749 mmHg 84%
    14:00 +9°C° 0.5 mm 2 mps 749 mmHg 84%
    15:00 +8°C° 0.5 mm 2 mps 749 mmHg 84%
    16:00 +8°C° 0.5 mm 2 mps 749 mmHg 84%
    17:00 +8°C° 0.2 mm 3 mps 749 mmHg 85%
    18:00 +7°C° 0.2 mm 3 mps 749 mmHg 86%
    19:00 +7°C° 0.2 mm 3 mps 750 mmHg 86%
    20:00 +5°C° 0.6 mm 3 mps 751 mmHg 86%
    21:00 +5°C° 0.6 mm 3 mps 751 mmHg 86%
    22:00 +4°C° 0.6 mm 3 mps 752 mmHg 86%
    23:00 +4°C° 0.4 mm 3 mps 752 mmHg 86%

    Day after tomorrow, 31 March, Tuesday

    Time Temperature Precipitation Wind Pressure Humidity
    00:00 +4°C° 0.4 mm 2 mps 753 mmHg 85%
    01:00 +4°C° 0.4 mm 2 mps 753 mmHg 85%
    02:00 +4°C° 0.1 mm 2 mps 753 mmHg 84%
    03:00 +3°C° 0.1 mm 2 mps 753 mmHg 83%
    04:00 +4°C° 0.1 mm 1 mps 753 mmHg 82%
    05:00 +4°C° 0 mm 1 mps 754 mmHg 80%
    06:00 +4°C° 0 mm 1 mps 754 mmHg 79%
    07:00 +4°C° 0 mm 1 mps 754 mmHg 78%
    08:00 +4°C° 0.1 mm 2 mps 754 mmHg 75%
    09:00 +5°C° 0.1 mm 2 mps 754 mmHg 72%
    10:00 +6°C° 0.1 mm 2 mps 754 mmHg 68%
    11:00 +7°C° 0.1 mm 2 mps 754 mmHg 66%
    12:00 +8°C° 0.1 mm 2 mps 754 mmHg 63%
    13:00 +8°C° 0.1 mm 2 mps 754 mmHg 60%
    14:00 +8°C° 0.1 mm 2 mps 754 mmHg 59%
    15:00 +9°C° 0.1 mm 2 mps 754 mmHg 59%
    16:00 +10°C° 0.1 mm 1 mps 753 mmHg 58%
    17:00 +9°C° 0.1 mm 1 mps 754 mmHg 62%
    18:00 +8°C° 0.1 mm 1 mps 755 mmHg 66%
    19:00 +7°C° 0.1 mm 1 mps 755 mmHg 70%
    20:00 +6°C° 0.2 mm 1 mps 756 mmHg 71%
    21:00 +6°C° 0.2 mm 1 mps 757 mmHg 71%
    22:00 +5°C° 0.2 mm 1 mps 757 mmHg 71%
    23:00 +5°C° 0.1 mm 1 mps 757 mmHg 71%

    1 April, Wednesday

    Time Temperature Precipitation Wind Pressure Humidity
    00:00 +4°C° 0.1 mm 1 mps 757 mmHg 71%
    01:00 +4°C° 0.1 mm 1 mps 757 mmHg 71%
    02:00 +3°C° 0 mm 1 mps 757 mmHg 71%
    03:00 +2°C° 0 mm 2 mps 756 mmHg 72%
    04:00 +1°C° 0 mm 2 mps 756 mmHg 72%
    05:00 +1°C° 0 mm 2 mps 756 mmHg 72%
    06:00 +1°C° 0 mm 2 mps 756 mmHg 71%
    07:00 +3°C° 0 mm 1 mps 756 mmHg 70%
    08:00 +5°C° 0 mm 1 mps 755 mmHg 64%
    09:00 +6°C° 0 mm 1 mps 755 mmHg 59%
    10:00 +8°C° 0 mm 1 mps 754 mmHg 53%
    11:00 +9°C° 0 mm 1 mps 754 mmHg 53%
    12:00 +9°C° 0 mm 2 mps 753 mmHg 53%
    13:00 +9°C° 0 mm 2 mps 753 mmHg 53%
    14:00 +9°C° 0 mm 2 mps 752 mmHg 54%
    15:00 +9°C° 0 mm 2 mps 751 mmHg 55%
    16:00 +9°C° 0 mm 2 mps 751 mmHg 56%
    17:00 +8°C° 0 mm 2 mps 751 mmHg 62%
    18:00 +8°C° 0 mm 1 mps 751 mmHg 68%
    19:00 +6°C° 0 mm 1 mps 751 mmHg 74%
    20:00 +6°C° 0 mm 1 mps 751 mmHg 75%
    21:00 +6°C° 0 mm 1 mps 752 mmHg 76%
    22:00 +5°C° 0 mm 1 mps 752 mmHg 77%
    23:00 +5°C° 0 mm 1 mps 752 mmHg 77%

    2 April, Thursday

    Time Temperature Precipitation Wind Pressure Humidity
    00:00 +5°C° 0 mm 1 mps 751 mmHg 77%
    01:00 +4°C° 0 mm 1 mps 751 mmHg 77%
    02:00 +4°C° 0 mm 1 mps 751 mmHg 78%
    03:00 +4°C° 0 mm 1 mps 750 mmHg 79%
    04:00 +4°C° 0 mm 1 mps 750 mmHg 79%
    05:00 +4°C° 0 mm 1 mps 750 mmHg 78%
    06:00 +5°C° 0 mm 1 mps 749 mmHg 77%
    07:00 +5°C° 0 mm 1 mps 749 mmHg 75%
    08:00 +7°C° 0 mm 1 mps 749 mmHg 71%
    09:00 +8°C° 0 mm 1 mps 748 mmHg 66%
    10:00 +10°C° 0 mm 1 mps 748 mmHg 61%
    11:00 +11°C° 0 mm 1 mps 748 mmHg 59%
    12:00 +12°C° 0 mm 1 mps 747 mmHg 57%
    13:00 +12°C° 0 mm 1 mps 747 mmHg 55%
    14:00 +12°C° 0 mm 2 mps 747 mmHg 55%
    15:00 +12°C° 0 mm 2 mps 746 mmHg 55%
    16:00 +12°C° 0 mm 2 mps 746 mmHg 56%
    17:00 +11°C° 0 mm 1 mps 746 mmHg 62%
    18:00 +9°C° 0 mm 1 mps 746 mmHg 68%
    19:00 +8°C° 0 mm 1 mps 747 mmHg 74%
    20:00 +7°C° 0 mm 1 mps 747 mmHg 75%
    21:00 +6°C° 0 mm 0 mps 748 mmHg 77%
    22:00 +5°C° 0 mm 0 mps 748 mmHg 79%
    23:00 +5°C° 0 mm 0 mps 748 mmHg 79%

    3 April, Friday

    Time Temperature Precipitation Wind Pressure Humidity
    00:00 +5°C° 0 mm 0 mps 748 mmHg 80%
    01:00 +5°C° 0 mm 0 mps 748 mmHg 81%
    02:00 +5°C° 0 mm 1 mps 748 mmHg 81%
    03:00 +5°C° 0 mm 1 mps 747 mmHg 82%
    04:00 +5°C° 0 mm 1 mps 747 mmHg 82%
    05:00 +5°C° 0 mm 1 mps 747 mmHg 81%
    06:00 +6°C° 0 mm 1 mps 747 mmHg 79%
    07:00 +6°C° 0 mm 1 mps 747 mmHg 78%
    08:00 +8°C° 0 mm 1 mps 747 mmHg 73%
    09:00 +10°C° 0 mm 1 mps 747 mmHg 68%
    10:00 +11°C° 0 mm 1 mps 747 mmHg 63%
    11:00 +12°C° 0 mm 1 mps 746 mmHg 61%
    12:00 +13°C° 0 mm 1 mps 746 mmHg 60%
    13:00 +14°C° 0 mm 1 mps 746 mmHg 59%
    14:00 +14°C° 0 mm 1 mps 746 mmHg 59%
    15:00 +14°C° 0 mm 1 mps 745 mmHg 59%
    16:00 +14°C° 0 mm 1 mps 745 mmHg 59%
    17:00 +13°C° 0 mm 1 mps 746 mmHg 65%
    18:00 +11°C° 0 mm 1 mps 746 mmHg 71%
    19:00 +10°C° 0 mm 1 mps 746 mmHg 77%
    20:00 +9°C° 0 mm 1 mps 747 mmHg 77%
    21:00 +9°C° 0 mm 1 mps 748 mmHg 77%
    22:00 +9°C° 0 mm 1 mps 749 mmHg 77%
    23:00 +9°C° 0 mm 1 mps 749 mmHg 76%
    Show more